星链-3508 (STARLINK-3508 )

导读 | 豆包AI

STARLINK-3508是美国太空探索技术公司星链卫星互联网项目的卫星。星链计划旨在构建覆盖全球的低轨卫星互联网星座,为全球提供高速互联网服务。STARLINK-3508于2022年3月3日发射,属于星链的组网补网卫星,助推星座规模化部署,进一步完善全球卫星通信网络覆盖能力,提升低轨通信服务的稳定性与覆盖范围。

基本信息
目录编号:
51862
目录名称:
STARLINK-3508
国际标识:
2022-022L
轨道中心:
EARTH
卫星名称:
星链-3508
卫星全名:
星链-3508 (STARLINK-3508 )
卫星状态:
在轨 (已飞行1472 天)
发射日期:
2022-03-03 UTC
国别 :
美国 (US)
星等 :
--
轨道信息
数据来源 国际轨道数据
星历时间: 2026-03-14T08:43:48+0800
21小时前
查看轨道信息
半长轴: 6917.845km
偏心率: 0.0001599
轨道倾角: 53.220°
近地点辐角 83.047°
升交点赤经 349.635°
平近点角 277.070°
近地点: 538.601km
远地点: 540.815km
周期: 95.437分钟
每日圈数: 15.088519
详细信息
固有亮度:
5
最大亮度:
2.5
卫星平台:
Starlink v1.5
覆盖范围:
全球
运营商:
太空探索技术公司
运营商所在国:
美国
制造商(研发单位):
太空探索技术公司
制造商所在国:
美国
使用方式:
暂无
卫星简介
星链(Starlink)计划是由太空探索技术公司(SpaceX)提出的一个巨型低轨卫星互联网星座项目,计划在2019年至2024年间在太空搭建由约1.2万颗卫星组成的“星链”网络,其中1584颗将部署在地球上空550千米处的近地轨道,并从2020年开始工作。该卫星仍在工作。
2D轨道图
3D轨道图
轨道高度分析图
轨道倾角分析图
轨道综合分析图
查看轨道综合分析图